Time,TemperatureF,DewpointF,PressureIn,WindDirection,WindDirectionDegrees,WindSpeedMPH,WindSpeedGustMPH,Humidity,HourlyPrecipIn,Conditions,Clouds,dailyrainin,SoftwareType,DateUTC
2013-03-01 00:01:00,33.5,27.4,30.17,West,277,0.0,0.0,78,0.00,,---,0.00,VWS V14.01,2013-03-01 06:01:00,
2013-03-01 00:06:00,32.9,26.8,30.17,West,277,0.0,0.0,78,0.00,,---,0.00,VWS V14.01,2013-03-01 06:06:00,
2013-03-01 00:11:00,32.2,26.4,30.17,West,277,0.0,0.0,79,0.00,,---,0.00,VWS V14.01,2013-03-01 06:11:00,
2013-03-01 00:16:00,31.6,25.9,30.17,West,277,0.0,0.0,79,0.00,,---,0.00,VWS V14.01,2013-03-01 06:16:00,
2013-03-01 00:21:00,31.0,25.9,30.17,West,277,0.0,0.0,81,0.00,,---,0.00,VWS V14.01,2013-03-01 06:21:00,
2013-03-01 00:26:00,30.6,25.8,30.17,West,277,0.0,0.0,82,0.00,,---,0.00,VWS V14.01,2013-03-01 06:26:00,
2013-03-01 00:31:00,30.3,25.8,30.17,West,277,0.0,0.0,83,0.00,,---,0.00,VWS V14.01,2013-03-01 06:31:00,
2013-03-01 00:36:00,29.8,25.6,30.17,West,277,0.0,0.0,84,0.00,,---,0.00,VWS V14.01,2013-03-01 06:36:00,
2013-03-01 00:41:00,29.7,25.5,30.17,West,277,0.0,0.0,84,0.00,,---,0.00,VWS V14.01,2013-03-01 06:41:00,
2013-03-01 00:46:00,29.7,25.5,30.17,West,277,0.0,0.0,84,0.00,,---,0.00,VWS V14.01,2013-03-01 06:46:00,
2013-03-01 00:51:00,29.7,25.8,30.17,West,277,0.0,0.0,85,0.00,,---,0.00,VWS V14.01,2013-03-01 06:51:00,
2013-03-01 00:56:00,29.7,25.8,30.17,West,277,0.0,1.0,85,0.00,,---,0.00,VWS V14.01,2013-03-01 06:56:00,
2013-03-01 01:01:00,29.8,26.1,30.17,West,277,0.0,0.0,86,0.00,,---,0.00,VWS V14.01,2013-03-01 07:01:00,
2013-03-01 01:06:00,29.8,26.1,30.17,West,277,0.0,0.0,86,0.00,,---,0.00,VWS V14.01,2013-03-01 07:06:00,
2013-03-01 01:11:00,29.7,26.3,30.17,West,277,0.0,0.0,87,0.00,,---,0.00,VWS V14.01,2013-03-01 07:11:00,
2013-03-01 01:16:00,29.4,25.7,30.17,West,277,0.0,0.0,86,0.00,,---,0.00,VWS V14.01,2013-03-01 07:16:00,
2013-03-01 01:21:00,29.3,25.9,30.17,West,277,0.0,0.0,87,0.00,,---,0.00,VWS V14.01,2013-03-01 07:21:00,
2013-03-01 01:26:00,29.0,25.6,30.17,West,277,0.0,0.0,87,0.00,,---,0.00,VWS V14.01,2013-03-01 07:26:00,
2013-03-01 01:31:00,28.8,25.4,30.17,West,277,0.0,0.0,87,0.00,,---,0.00,VWS V14.01,2013-03-01 07:31:00,
2013-03-01 01:36:00,28.5,25.1,30.17,West,277,0.0,0.0,87,0.00,,---,0.00,VWS V14.01,2013-03-01 07:36:00,
2013-03-01 01:41:00,28.4,25.3,30.17,West,277,0.0,0.0,88,0.00,,---,0.00,VWS V14.01,2013-03-01 07:41:00,
2013-03-01 01:46:00,28.1,25.0,30.17,West,277,0.0,0.0,88,0.00,,---,0.00,VWS V14.01,2013-03-01 07:46:00,
2013-03-01 01:51:00,27.9,24.8,30.17,West,277,0.0,0.0,88,0.00,,---,0.00,VWS V14.01,2013-03-01 07:51:00,
2013-03-01 01:56:00,27.8,25.0,30.17,West,277,0.0,0.0,89,0.00,,---,0.00,VWS V14.01,2013-03-01 07:56:00,
2013-03-01 02:01:00,27.6,24.8,30.17,West,277,0.0,0.0,89,0.00,,---,0.00,VWS V14.01,2013-03-01 08:01:00,
2013-03-01 02:06:00,27.3,24.5,30.17,West,277,0.0,0.0,89,0.00,,---,0.00,VWS V14.01,2013-03-01 08:06:00,
2013-03-01 02:11:00,27.2,24.4,30.17,West,277,0.0,0.0,89,0.00,,---,0.00,VWS V14.01,2013-03-01 08:11:00,
2013-03-01 02:16:00,26.9,24.1,30.17,West,277,0.0,0.0,89,0.00,,---,0.00,VWS V14.01,2013-03-01 08:16:00,
2013-03-01 02:21:00,26.9,24.1,30.17,West,277,0.0,0.0,89,0.00,,---,0.00,VWS V14.01,2013-03-01 08:21:00,
2013-03-01 02:26:00,26.6,24.1,30.17,West,277,0.0,0.0,90,0.00,,---,0.00,VWS V14.01,2013-03-01 08:26:00,
2013-03-01 02:31:00,26.4,23.6,30.16,West,277,0.0,0.0,89,0.00,,---,0.00,VWS V14.01,2013-03-01 08:31:00,
2013-03-01 02:36:00,26.4,23.9,30.16,West,277,0.0,0.0,90,0.00,,---,0.00,VWS V14.01,2013-03-01 08:36:00,
2013-03-01 02:41:00,26.3,23.8,30.16,West,277,0.0,0.0,90,0.00,,---,0.00,VWS V14.01,2013-03-01 08:41:00,
2013-03-01 02:46:00,26.1,23.6,30.16,West,277,0.0,0.0,90,0.00,,---,0.00,VWS V14.01,2013-03-01 08:46:00,
2013-03-01 02:51:00,26.1,23.6,30.15,West,277,0.0,0.0,90,0.00,,---,0.00,VWS V14.01,2013-03-01 08:51:00,
2013-03-01 02:56:00,26.1,23.6,30.15,West,277,0.0,0.0,90,0.00,,---,0.00,VWS V14.01,2013-03-01 08:56:00,
2013-03-01 03:01:00,26.1,23.6,30.15,West,277,0.0,2.0,90,0.00,,---,0.00,VWS V14.01,2013-03-01 09:01:00,
2013-03-01 03:06:00,26.1,23.8,30.15,West,277,0.0,0.0,91,0.00,,---,0.00,VWS V14.01,2013-03-01 09:06:00,
2013-03-01 03:11:00,26.4,24.1,30.15,West,277,0.0,2.0,91,0.00,,---,0.00,VWS V14.01,2013-03-01 09:11:00,
2013-03-01 03:16:00,27.2,25.2,30.15,West,277,1.0,1.0,92,0.00,,---,0.00,VWS V14.01,2013-03-01 09:16:00,
2013-03-01 03:21:00,28.4,26.6,30.15,West,277,0.0,0.0,93,0.00,,---,0.00,VWS V14.01,2013-03-01 09:21:00,
2013-03-01 03:26:00,29.4,27.4,30.15,West,277,0.0,0.0,92,0.00,,---,0.00,VWS V14.01,2013-03-01 09:26:00,
2013-03-01 03:31:00,30.9,27.8,30.14,WNW,286,1.0,2.0,88,0.00,,---,0.00,VWS V14.01,2013-03-01 09:31:00,
2013-03-01 03:36:00,31.9,27.9,30.14,WNW,289,1.0,1.0,85,0.00,,---,0.00,VWS V14.01,2013-03-01 09:36:00,
2013-03-01 03:41:00,32.4,27.8,30.15,WNW,287,1.0,3.0,83,0.00,,---,0.00,VWS V14.01,2013-03-01 09:41:00,
2013-03-01 03:46:00,32.7,27.8,30.15,WNW,287,1.0,2.0,82,0.00,,---,0.00,VWS V14.01,2013-03-01 09:46:00,
2013-03-01 03:51:00,32.8,27.6,30.15,WNW,287,0.0,0.0,81,0.00,,---,0.00,VWS V14.01,2013-03-01 09:51:00,
2013-03-01 03:56:00,32.5,27.3,30.16,WNW,287,0.0,0.0,81,0.00,,---,0.00,VWS V14.01,2013-03-01 09:56:00,
2013-03-01 04:01:00,32.1,26.9,30.16,WNW,287,0.0,0.0,81,0.00,,---,0.00,VWS V14.01,2013-03-01 10:01:00,
2013-03-01 04:06:00,31.5,26.9,30.16,WNW,287,0.0,0.0,83,0.00,,---,0.00,VWS V14.01,2013-03-01 10:06:00,
2013-03-01 04:11:00,31.3,26.8,30.16,WNW,287,0.0,0.0,83,0.00,,---,0.00,VWS V14.01,2013-03-01 10:11:00,
2013-03-01 04:16:00,30.7,25.9,30.16,WNW,287,0.0,0.0,82,0.00,,---,0.00,VWS V14.01,2013-03-01 10:16:00,
2013-03-01 04:21:00,30.4,25.9,30.16,WNW,287,0.0,0.0,83,0.00,,---,0.00,VWS V14.01,2013-03-01 10:21:00,
2013-03-01 04:26:00,30.0,25.5,30.16,WNW,287,0.0,0.0,83,0.00,,---,0.00,VWS V14.01,2013-03-01 10:26:00,
2013-03-01 04:31:00,29.7,25.2,30.16,WNW,287,0.0,0.0,83,0.00,,---,0.00,VWS V14.01,2013-03-01 10:31:00,
2013-03-01 04:36:00,29.8,26.1,30.16,WNW,287,0.0,0.0,86,0.00,,---,0.00,VWS V14.01,2013-03-01 10:36:00,
2013-03-01 04:41:00,30.0,26.0,30.16,WNW,287,0.0,0.0,85,0.00,,---,0.00,VWS V14.01,2013-03-01 10:41:00,
2013-03-01 04:46:00,30.1,26.4,30.16,WNW,287,0.0,0.0,86,0.00,,---,0.00,VWS V14.01,2013-03-01 10:46:00,
2013-03-01 04:51:00,30.3,26.3,30.16,WNW,287,0.0,0.0,85,0.00,,---,0.00,VWS V14.01,2013-03-01 10:51:00,
2013-03-01 04:56:00,30.1,25.9,30.17,WNW,287,0.0,0.0,84,0.00,,---,0.00,VWS V14.01,2013-03-01 10:56:00,
2013-03-01 05:01:00,29.5,25.3,30.17,WNW,287,0.0,0.0,84,0.00,,---,0.00,VWS V14.01,2013-03-01 11:01:00,
2013-03-01 05:06:00,29.0,25.1,30.17,WNW,287,0.0,0.0,85,0.00,,---,0.00,VWS V14.01,2013-03-01 11:06:00,
2013-03-01 05:11:00,28.5,24.9,30.17,WNW,287,0.0,0.0,86,0.00,,---,0.00,VWS V14.01,2013-03-01 11:11:00,
2013-03-01 05:16:00,27.9,24.3,30.17,WNW,287,0.0,0.0,86,0.00,,---,0.00,VWS V14.01,2013-03-01 11:16:00,
2013-03-01 05:21:00,27.8,24.2,30.17,WNW,287,0.0,0.0,86,0.00,,---,0.00,VWS V14.01,2013-03-01 11:21:00,
2013-03-01 05:26:00,27.0,23.4,30.17,WNW,287,0.0,0.0,86,0.00,,---,0.00,VWS V14.01,2013-03-01 11:26:00,
2013-03-01 05:31:00,26.6,23.3,30.18,WNW,287,0.0,0.0,87,0.00,,---,0.00,VWS V14.01,2013-03-01 11:31:00,
2013-03-01 05:36:00,26.4,23.3,30.18,WNW,287,0.0,0.0,88,0.00,,---,0.00,VWS V14.01,2013-03-01 11:36:00,
2013-03-01 05:41:00,26.3,23.5,30.18,WNW,287,0.0,0.0,89,0.00,,---,0.00,VWS V14.01,2013-03-01 11:41:00,
2013-03-01 05:46:00,26.1,23.3,30.18,WNW,287,0.0,0.0,89,0.00,,---,0.00,VWS V14.01,2013-03-01 11:46:00,
2013-03-01 05:51:00,26.1,23.3,30.18,WNW,287,0.0,0.0,89,0.00,,---,0.00,VWS V14.01,2013-03-01 11:51:00,
2013-03-01 05:56:00,26.1,23.3,30.18,WNW,287,0.0,0.0,89,0.00,,---,0.00,VWS V14.01,2013-03-01 11:56:00,
2013-03-01 06:01:00,26.1,23.3,30.19,WNW,287,0.0,0.0,89,0.00,,---,0.00,VWS V14.01,2013-03-01 12:01:00,
2013-03-01 06:06:00,26.0,23.2,30.19,WNW,287,0.0,0.0,89,0.00,,---,0.00,VWS V14.01,2013-03-01 12:06:00,
2013-03-01 06:11:00,25.8,23.0,30.19,WNW,287,0.0,0.0,89,0.00,,---,0.00,VWS V14.01,2013-03-01 12:11:00,
2013-03-01 06:16:00,25.6,22.8,30.19,WNW,287,0.0,0.0,89,0.00,,---,0.00,VWS V14.01,2013-03-01 12:16:00,
2013-03-01 06:21:00,25.4,22.6,30.19,WNW,287,0.0,0.0,89,0.00,,---,0.00,VWS V14.01,2013-03-01 12:21:00,
2013-03-01 06:26:00,25.1,22.3,30.19,WNW,287,0.0,0.0,89,0.00,,---,0.00,VWS V14.01,2013-03-01 12:26:00,
2013-03-01 06:31:00,25.0,22.2,30.19,WNW,287,0.0,0.0,89,0.00,,---,0.00,VWS V14.01,2013-03-01 12:31:00,
2013-03-01 06:36:00,25.0,22.2,30.19,WNW,287,0.0,0.0,89,0.00,,---,0.00,VWS V14.01,2013-03-01 12:36:00,
2013-03-01 06:41:00,24.8,22.0,30.19,WNW,287,0.0,0.0,89,0.00,,---,0.00,VWS V14.01,2013-03-01 12:41:00,
2013-03-01 06:46:00,24.5,22.0,30.20,WNW,287,0.0,0.0,90,0.00,,---,0.00,VWS V14.01,2013-03-01 12:46:00,
2013-03-01 06:51:00,24.4,21.9,30.20,WNW,287,0.0,0.0,90,0.00,,---,0.00,VWS V14.01,2013-03-01 12:51:00,
2013-03-01 06:56:00,24.4,21.9,30.20,WNW,287,0.0,0.0,90,0.00,,---,0.00,VWS V14.01,2013-03-01 12:56:00,
2013-03-01 07:01:00,24.7,22.5,30.21,WNW,287,0.0,0.0,91,0.00,,---,0.00,VWS V14.01,2013-03-01 13:01:00,
2013-03-01 07:06:00,24.8,22.5,30.21,WNW,287,0.0,0.0,91,0.00,,---,0.00,VWS V14.01,2013-03-01 13:06:00,
2013-03-01 07:11:00,24.8,22.5,30.21,WNW,287,0.0,0.0,91,0.00,,---,0.00,VWS V14.01,2013-03-01 13:11:00,
2013-03-01 07:16:00,25.0,22.8,30.22,WNW,287,0.0,0.0,91,0.00,,---,0.00,VWS V14.01,2013-03-01 13:16:00,
2013-03-01 07:21:00,25.1,22.9,30.22,WNW,287,0.0,0.0,91,0.00,,---,0.00,VWS V14.01,2013-03-01 13:21:00,
2013-03-01 07:26:00,26.3,24.6,30.22,WNW,287,0.0,0.0,93,0.00,,---,0.00,VWS V14.01,2013-03-01 13:26:00,
2013-03-01 07:31:00,27.8,26.3,30.22,WNW,287,0.0,0.0,94,0.00,,---,0.00,VWS V14.01,2013-03-01 13:31:00,
2013-03-01 07:36:00,29.1,26.8,30.22,WNW,286,0.0,0.0,91,0.00,,---,0.00,VWS V14.01,2013-03-01 13:36:00,
2013-03-01 07:41:00,30.0,27.2,30.22,WNW,286,0.0,0.0,89,0.00,,---,0.00,VWS V14.01,2013-03-01 13:41:00,
2013-03-01 07:46:00,30.7,27.0,30.22,WNW,286,0.0,0.0,86,0.00,,---,0.00,VWS V14.01,2013-03-01 13:46:00,
2013-03-01 07:51:00,31.3,27.0,30.22,WNW,284,0.0,0.0,84,0.00,,---,0.00,VWS V14.01,2013-03-01 13:51:00,
2013-03-01 07:56:00,31.8,27.2,30.22,WNW,301,0.0,0.0,83,0.00,,---,0.00,VWS V14.01,2013-03-01 13:56:00,
2013-03-01 08:01:00,32.4,27.8,30.22,WNW,301,0.0,0.0,83,0.00,,---,0.00,VWS V14.01,2013-03-01 14:01:00,
2013-03-01 08:06:00,32.9,27.7,30.22,WNW,300,0.0,0.0,81,0.00,,---,0.00,VWS V14.01,2013-03-01 14:06:00,
2013-03-01 08:11:00,33.5,28.0,30.23,West,279,7.0,7.0,80,0.00,,---,0.00,VWS V14.01,2013-03-01 14:11:00,
2013-03-01 08:16:00,33.8,28.0,30.23,WNW,297,2.0,2.0,79,0.00,,---,0.00,VWS V14.01,2013-03-01 14:16:00,
2013-03-01 08:21:00,34.6,28.5,30.23,West,279,6.0,6.0,78,0.00,,---,0.00,VWS V14.01,2013-03-01 14:21:00,
2013-03-01 08:26:00,34.9,28.1,30.23,West,279,6.0,6.0,76,0.00,,---,0.00,VWS V14.01,2013-03-01 14:26:00,
2013-03-01 08:31:00,35.0,27.9,30.23,WNW,284,3.0,6.0,75,0.00,,---,0.00,VWS V14.01,2013-03-01 14:31:00,
2013-03-01 08:36:00,35.8,28.3,30.23,WNW,291,3.0,6.0,74,0.00,,---,0.00,VWS V14.01,2013-03-01 14:36:00,
2013-03-01 08:41:00,35.9,28.8,30.23,West,272,5.0,5.0,75,0.00,,---,0.00,VWS V14.01,2013-03-01 14:41:00,
2013-03-01 08:46:00,36.9,29.7,30.23,NW,325,3.0,7.0,75,0.00,,---,0.00,VWS V14.01,2013-03-01 14:46:00,
2013-03-01 08:51:00,37.3,28.8,30.23,WNW,290,5.0,6.0,71,0.00,,---,0.00,VWS V14.01,2013-03-01 14:51:00,
2013-03-01 08:56:00,37.5,29.0,30.23,WNW,299,7.0,10.0,71,0.00,,---,0.00,VWS V14.01,2013-03-01 14:56:00,
2013-03-01 09:01:00,37.6,28.0,30.23,NW,308,5.0,5.0,68,0.00,,---,0.00,VWS V14.01,2013-03-01 15:01:00,
2013-03-01 09:06:00,37.9,28.3,30.23,North,354,3.0,3.0,68,0.00,,---,0.00,VWS V14.01,2013-03-01 15:06:00,
2013-03-01 09:11:00,38.3,28.3,30.23,NNW,344,3.0,5.0,67,0.00,,---,0.00,VWS V14.01,2013-03-01 15:11:00,
2013-03-01 09:16:00,38.9,28.5,30.24,WNW,282,3.0,6.0,66,0.00,,---,0.00,VWS V14.01,2013-03-01 15:16:00,
2013-03-01 09:21:00,39.1,28.3,30.24,WNW,286,5.0,7.0,65,0.00,,---,0.00,VWS V14.01,2013-03-01 15:21:00,
2013-03-01 09:26:00,38.9,28.1,30.24,West,280,5.0,8.0,65,0.00,,---,0.00,VWS V14.01,2013-03-01 15:26:00,
2013-03-01 09:31:00,39.1,28.3,30.24,WNW,297,3.0,8.0,65,0.00,,---,0.00,VWS V14.01,2013-03-01 15:31:00,
2013-03-01 09:36:00,38.9,27.8,30.23,North,351,5.0,8.0,64,0.00,,---,0.00,VWS V14.01,2013-03-01 15:36:00,
2013-03-01 09:41:00,39.3,28.5,30.23,NW,323,5.0,6.0,65,0.00,,---,0.00,VWS V14.01,2013-03-01 15:41:00,
2013-03-01 09:46:00,40.1,28.1,30.24,WNW,287,6.0,7.0,62,0.00,,---,0.00,VWS V14.01,2013-03-01 15:46:00,
2013-03-01 09:51:00,39.9,28.0,30.24,WNW,286,2.0,6.0,62,0.00,,---,0.00,VWS V14.01,2013-03-01 15:51:00,
2013-03-01 09:56:00,39.9,28.0,30.23,North,5,6.0,6.0,62,0.00,,---,0.00,VWS V14.01,2013-03-01 15:56:00,
2013-03-01 10:01:00,40.2,27.8,30.23,North,349,5.0,6.0,61,0.00,,---,0.00,VWS V14.01,2013-03-01 16:01:00,
2013-03-01 10:06:00,40.6,28.6,30.23,NW,314,6.0,6.0,62,0.00,,---,0.00,VWS V14.01,2013-03-01 16:06:00,
2013-03-01 10:11:00,41.2,28.4,30.23,WSW,253,3.0,7.0,60,0.00,,---,0.00,VWS V14.01,2013-03-01 16:11:00,
2013-03-01 10:16:00,41.3,28.1,30.23,North,5,10.0,10.0,59,0.00,,---,0.00,VWS V14.01,2013-03-01 16:16:00,
2013-03-01 10:21:00,41.5,28.3,30.23,NNE,18,10.0,10.0,59,0.00,,---,0.00,VWS V14.01,2013-03-01 16:21:00,
2013-03-01 10:26:00,41.9,28.2,30.23,West,263,5.0,7.0,58,0.00,,---,0.00,VWS V14.01,2013-03-01 16:26:00,
2013-03-01 10:31:00,42.2,28.5,30.22,West,276,5.0,11.0,58,0.00,,---,0.00,VWS V14.01,2013-03-01 16:31:00,
2013-03-01 10:36:00,42.6,27.6,30.23,NW,325,5.0,5.0,55,0.00,,---,0.00,VWS V14.01,2013-03-01 16:36:00,
2013-03-01 10:41:00,42.6,27.6,30.23,NNW,339,3.0,3.0,55,0.00,,---,0.00,VWS V14.01,2013-03-01 16:41:00,
2013-03-01 10:46:00,42.9,26.5,30.23,NW,314,6.0,6.0,52,0.00,,---,0.00,VWS V14.01,2013-03-01 16:46:00,
2013-03-01 10:51:00,43.2,26.8,30.23,WNW,293,5.0,5.0,52,0.00,,---,0.00,VWS V14.01,2013-03-01 16:51:00,
2013-03-01 10:56:00,43.6,27.1,30.22,West,270,3.0,10.0,52,0.00,,---,0.00,VWS V14.01,2013-03-01 16:56:00,
2013-03-01 11:01:00,43.3,25.4,30.22,NW,321,7.0,10.0,49,0.00,,---,0.00,VWS V14.01,2013-03-01 17:01:00,
2013-03-01 11:06:00,43.6,25.7,30.22,WSW,253,8.0,10.0,49,0.00,,---,0.00,VWS V14.01,2013-03-01 17:06:00,
2013-03-01 11:11:00,43.5,25.6,30.22,WSW,242,5.0,8.0,49,0.00,,---,0.00,VWS V14.01,2013-03-01 17:11:00,
2013-03-01 11:16:00,43.9,27.4,30.22,West,265,10.0,10.0,52,0.00,,---,0.00,VWS V14.01,2013-03-01 17:16:00,
2013-03-01 11:21:00,44.6,26.6,30.22,WNW,282,3.0,6.0,49,0.00,,---,0.00,VWS V14.01,2013-03-01 17:21:00,
2013-03-01 11:26:00,45.4,27.4,30.22,West,280,8.0,8.0,49,0.00,,---,0.00,VWS V14.01,2013-03-01 17:26:00,
2013-03-01 11:31:00,45.4,27.4,30.22,WSW,258,6.0,6.0,49,0.00,,---,0.00,VWS V14.01,2013-03-01 17:31:00,
2013-03-01 11:36:00,45.5,26.5,30.21,West,279,7.0,10.0,47,0.00,,---,0.00,VWS V14.01,2013-03-01 17:36:00,
2013-03-01 11:41:00,45.5,26.5,30.21,NW,310,6.0,10.0,47,0.00,,---,0.00,VWS V14.01,2013-03-01 17:41:00,
2013-03-01 11:46:00,45.8,26.7,30.21,West,275,7.0,7.0,47,0.00,,---,0.00,VWS V14.01,2013-03-01 17:46:00,
2013-03-01 11:51:00,45.7,26.6,30.21,NNW,331,5.0,5.0,47,0.00,,---,0.00,VWS V14.01,2013-03-01 17:51:00,
2013-03-01 11:56:00,46.1,27.0,30.20,North,359,5.0,5.0,47,0.00,,---,0.00,VWS V14.01,2013-03-01 17:56:00,
2013-03-01 12:01:00,47.1,25.8,30.21,West,275,12.0,14.0,43,0.00,,---,0.00,VWS V14.01,2013-03-01 18:01:00,
2013-03-01 12:06:00,46.8,26.6,30.21,West,266,5.0,18.0,45,0.00,,---,0.00,VWS V14.01,2013-03-01 18:06:00,
2013-03-01 12:11:00,46.4,26.8,30.20,WNW,290,7.0,7.0,46,0.00,,---,0.00,VWS V14.01,2013-03-01 18:11:00,
2013-03-01 12:16:00,46.1,27.0,30.20,NW,318,5.0,8.0,47,0.00,,---,0.00,VWS V14.01,2013-03-01 18:16:00,
2013-03-01 12:21:00,46.8,27.6,30.20,West,267,2.0,2.0,47,0.00,,---,0.00,VWS V14.01,2013-03-01 18:21:00,
2013-03-01 12:26:00,47.7,27.4,30.19,WNW,301,6.0,6.0,45,0.00,,---,0.00,VWS V14.01,2013-03-01 18:26:00,
2013-03-01 12:31:00,47.7,25.2,30.19,NW,315,3.0,12.0,41,0.00,,---,0.00,VWS V14.01,2013-03-01 18:31:00,
2013-03-01 12:36:00,47.9,26.5,30.19,West,279,8.0,16.0,43,0.00,,---,0.00,VWS V14.01,2013-03-01 18:36:00,
2013-03-01 12:41:00,47.6,26.2,30.19,NW,315,10.0,11.0,43,0.00,,---,0.00,VWS V14.01,2013-03-01 18:41:00,
2013-03-01 12:46:00,48.3,26.3,30.18,WSW,258,5.0,7.0,42,0.00,,---,0.00,VWS V14.01,2013-03-01 18:46:00,
2013-03-01 12:51:00,48.9,27.4,30.17,West,270,3.0,3.0,43,0.00,,---,0.00,VWS V14.01,2013-03-01 18:51:00,
2013-03-01 12:56:00,49.4,26.7,30.17,SSW,197,3.0,10.0,41,0.00,,---,0.00,VWS V14.01,2013-03-01 18:56:00,
2013-03-01 13:01:00,49.8,27.1,30.17,NW,318,8.0,8.0,41,0.00,,---,0.00,VWS V14.01,2013-03-01 19:01:00,
2013-03-01 13:06:00,49.5,25.0,30.17,NW,308,2.0,6.0,38,0.00,,---,0.00,VWS V14.01,2013-03-01 19:06:00,
2013-03-01 13:11:00,49.6,26.3,30.17,SW,228,7.0,7.0,40,0.00,,---,0.00,VWS V14.01,2013-03-01 19:11:00,
2013-03-01 13:16:00,49.9,25.3,30.16,West,263,2.0,6.0,38,0.00,,---,0.00,VWS V14.01,2013-03-01 19:16:00,
2013-03-01 13:21:00,49.9,25.3,30.16,West,277,12.0,12.0,38,0.00,,---,0.00,VWS V14.01,2013-03-01 19:21:00,
2013-03-01 13:26:00,49.9,26.0,30.16,NNW,348,1.0,8.0,39,0.00,,---,0.00,VWS V14.01,2013-03-01 19:26:00,
2013-03-01 13:31:00,50.5,26.5,30.15,WNW,283,6.0,7.0,39,0.00,,---,0.00,VWS V14.01,2013-03-01 19:31:00,
2013-03-01 13:36:00,51.0,26.9,30.15,WNW,294,10.0,11.0,39,0.00,,---,0.00,VWS V14.01,2013-03-01 19:36:00,
2013-03-01 13:41:00,51.0,26.9,30.15,West,260,6.0,13.0,39,0.00,,---,0.00,VWS V14.01,2013-03-01 19:41:00,
2013-03-01 13:46:00,50.5,24.6,30.14,West,265,5.0,7.0,36,0.00,,---,0.00,VWS V14.01,2013-03-01 19:46:00,
2013-03-01 13:51:00,51.0,25.0,30.14,West,280,14.0,14.0,36,0.00,,---,0.00,VWS V14.01,2013-03-01 19:51:00,
2013-03-01 13:56:00,51.0,25.0,30.14,West,265,6.0,6.0,36,0.00,,---,0.00,VWS V14.01,2013-03-01 19:56:00,
2013-03-01 14:01:00,51.1,24.4,30.14,NW,310,7.0,11.0,35,0.00,,---,0.00,VWS V14.01,2013-03-01 20:01:00,
2013-03-01 14:06:00,51.1,25.8,30.14,NW,320,6.0,8.0,37,0.00,,---,0.00,VWS V14.01,2013-03-01 20:06:00,
2013-03-01 14:11:00,51.6,24.9,30.14,NW,307,5.0,5.0,35,0.00,,---,0.00,VWS V14.01,2013-03-01 20:11:00,
2013-03-01 14:16:00,51.9,25.1,30.13,NW,308,1.0,6.0,35,0.00,,---,0.00,VWS V14.01,2013-03-01 20:16:00,
2013-03-01 14:21:00,51.6,23.5,30.13,North,358,5.0,5.0,33,0.00,,---,0.00,VWS V14.01,2013-03-01 20:21:00,
2013-03-01 14:26:00,51.7,24.3,30.13,WSW,255,5.0,6.0,34,0.00,,---,0.00,VWS V14.01,2013-03-01 20:26:00,
2013-03-01 14:31:00,51.7,25.0,30.13,West,276,14.0,14.0,35,0.00,,---,0.00,VWS V14.01,2013-03-01 20:31:00,
2013-03-01 14:36:00,51.1,24.4,30.13,WSW,253,10.0,10.0,35,0.00,,---,0.00,VWS V14.01,2013-03-01 20:36:00,
2013-03-01 14:41:00,51.0,23.6,30.13,WNW,293,3.0,3.0,34,0.00,,---,0.00,VWS V14.01,2013-03-01 20:41:00,
2013-03-01 14:46:00,51.1,23.0,30.13,West,267,12.0,12.0,33,0.00,,---,0.00,VWS V14.01,2013-03-01 20:46:00,
2013-03-01 14:51:00,51.0,22.9,30.13,West,266,10.0,10.0,33,0.00,,---,0.00,VWS V14.01,2013-03-01 20:51:00,
2013-03-01 14:56:00,51.4,22.5,30.13,WNW,293,5.0,10.0,32,0.00,,---,0.00,VWS V14.01,2013-03-01 20:56:00,
2013-03-01 15:01:00,51.6,21.2,30.13,WSW,253,7.0,13.0,30,0.00,,---,0.00,VWS V14.01,2013-03-01 21:01:00,
2013-03-01 15:06:00,51.4,21.0,30.12,WSW,252,6.0,7.0,30,0.00,,---,0.00,VWS V14.01,2013-03-01 21:06:00,
2013-03-01 15:11:00,51.9,21.5,30.12,WSW,256,6.0,8.0,30,0.00,,---,0.00,VWS V14.01,2013-03-01 21:11:00,
2013-03-01 15:16:00,52.5,22.0,30.12,West,259,8.0,13.0,30,0.00,,---,0.00,VWS V14.01,2013-03-01 21:16:00,
2013-03-01 15:21:00,52.5,22.8,30.12,WNW,291,8.0,16.0,31,0.00,,---,0.00,VWS V14.01,2013-03-01 21:21:00,
2013-03-01 15:26:00,52.2,22.5,30.12,NW,306,2.0,8.0,31,0.00,,---,0.00,VWS V14.01,2013-03-01 21:26:00,
2013-03-01 15:31:00,52.0,22.3,30.12,WNW,289,3.0,3.0,31,0.00,,---,0.00,VWS V14.01,2013-03-01 21:31:00,
2013-03-01 15:36:00,52.2,22.5,30.11,West,260,6.0,6.0,31,0.00,,---,0.00,VWS V14.01,2013-03-01 21:36:00,
2013-03-01 15:41:00,52.6,24.3,30.11,NNW,327,3.0,3.0,33,0.00,,---,0.00,VWS V14.01,2013-03-01 21:41:00,
2013-03-01 15:46:00,52.9,23.1,30.11,WSW,251,8.0,8.0,31,0.00,,---,0.00,VWS V14.01,2013-03-01 21:46:00,
2013-03-01 15:51:00,52.3,22.6,30.11,West,280,5.0,6.0,31,0.00,,---,0.00,VWS V14.01,2013-03-01 21:51:00,
2013-03-01 15:56:00,52.3,24.8,30.11,West,262,8.0,12.0,34,0.00,,---,0.00,VWS V14.01,2013-03-01 21:56:00,
2013-03-01 16:01:00,52.3,24.8,30.12,West,259,8.0,8.0,34,0.00,,---,0.00,VWS V14.01,2013-03-01 22:01:00,
2013-03-01 16:06:00,51.4,24.0,30.12,WSW,256,6.0,13.0,34,0.00,,---,0.00,VWS V14.01,2013-03-01 22:06:00,
2013-03-01 16:11:00,51.0,25.0,30.12,West,265,8.0,8.0,36,0.00,,---,0.00,VWS V14.01,2013-03-01 22:11:00,
2013-03-01 16:16:00,51.1,25.1,30.12,WSW,245,6.0,6.0,36,0.00,,---,0.00,VWS V14.01,2013-03-01 22:16:00,
2013-03-01 16:21:00,51.3,23.9,30.12,WNW,290,3.0,10.0,34,0.00,,---,0.00,VWS V14.01,2013-03-01 22:21:00,
2013-03-01 16:26:00,51.4,25.4,30.12,West,270,10.0,10.0,36,0.00,,---,0.00,VWS V14.01,2013-03-01 22:26:00,
2013-03-01 16:31:00,51.4,24.7,30.12,WNW,287,6.0,8.0,35,0.00,,---,0.00,VWS V14.01,2013-03-01 22:31:00,
2013-03-01 16:36:00,51.4,25.4,30.12,West,272,6.0,8.0,36,0.00,,---,0.00,VWS V14.01,2013-03-01 22:36:00,
2013-03-01 16:41:00,51.6,25.5,30.12,West,266,8.0,8.0,36,0.00,,---,0.00,VWS V14.01,2013-03-01 22:41:00,
2013-03-01 16:46:00,51.0,25.0,30.12,WNW,294,8.0,8.0,36,0.00,,---,0.00,VWS V14.01,2013-03-01 22:46:00,
2013-03-01 16:51:00,50.8,25.5,30.12,WNW,301,2.0,3.0,37,0.00,,---,0.00,VWS V14.01,2013-03-01 22:51:00,
2013-03-01 16:56:00,50.8,25.5,30.12,West,266,5.0,7.0,37,0.00,,---,0.00,VWS V14.01,2013-03-01 22:56:00,
2013-03-01 17:01:00,51.0,25.0,30.12,West,263,10.0,10.0,36,0.00,,---,0.00,VWS V14.01,2013-03-01 23:01:00,
2013-03-01 17:06:00,50.8,24.8,30.12,West,273,5.0,5.0,36,0.00,,---,0.00,VWS V14.01,2013-03-01 23:06:00,
2013-03-01 17:11:00,50.8,25.5,30.12,NE,42,5.0,5.0,37,0.00,,---,0.00,VWS V14.01,2013-03-01 23:11:00,
2013-03-01 17:16:00,50.4,24.5,30.12,West,272,11.0,11.0,36,0.00,,---,0.00,VWS V14.01,2013-03-01 23:16:00,
2013-03-01 17:21:00,50.2,25.6,30.12,NW,306,3.0,3.0,38,0.00,,---,0.00,VWS V14.01,2013-03-01 23:21:00,
2013-03-01 17:26:00,49.9,24.7,30.13,WNW,301,5.0,8.0,37,0.00,,---,0.00,VWS V14.01,2013-03-01 23:26:00,
2013-03-01 17:31:00,49.8,23.9,30.13,WSW,252,8.0,8.0,36,0.00,,---,0.00,VWS V14.01,2013-03-01 23:31:00,
2013-03-01 17:36:00,49.4,23.6,30.13,West,260,11.0,13.0,36,0.00,,---,0.00,VWS V14.01,2013-03-01 23:36:00,
2013-03-01 17:41:00,49.1,24.0,30.13,WNW,282,2.0,7.0,37,0.00,,---,0.00,VWS V14.01,2013-03-01 23:41:00,
2013-03-01 17:46:00,48.8,23.7,30.13,NW,315,3.0,3.0,37,0.00,,---,0.00,VWS V14.01,2013-03-01 23:46:00,
2013-03-01 17:51:00,48.6,23.5,30.14,WNW,287,2.0,6.0,37,0.00,,---,0.00,VWS V14.01,2013-03-01 23:51:00,
2013-03-01 17:56:00,48.3,23.9,30.14,NW,313,3.0,7.0,38,0.00,,---,0.00,VWS V14.01,2013-03-01 23:56:00,
2013-03-01 18:01:00,48.2,24.4,30.14,West,280,1.0,3.0,39,0.00,,---,0.00,VWS V14.01,2013-03-02 00:01:00,
2013-03-01 18:06:00,47.9,24.8,30.14,NW,304,2.0,5.0,40,0.00,,---,0.00,VWS V14.01,2013-03-02 00:06:00,
2013-03-01 18:11:00,47.6,24.5,30.14,WNW,300,5.0,5.0,40,0.00,,---,0.00,VWS V14.01,2013-03-02 00:11:00,
2013-03-01 18:16:00,47.1,25.2,30.14,NW,311,2.0,3.0,42,0.00,,---,0.00,VWS V14.01,2013-03-02 00:16:00,
2013-03-01 18:21:00,47.0,25.7,30.14,WNW,290,2.0,2.0,43,0.00,,---,0.00,VWS V14.01,2013-03-02 00:21:00,
2013-03-01 18:26:00,46.5,25.2,30.15,West,259,3.0,5.0,43,0.00,,---,0.00,VWS V14.01,2013-03-02 00:26:00,
2013-03-01 18:31:00,46.4,25.7,30.15,West,266,3.0,6.0,44,0.00,,---,0.00,VWS V14.01,2013-03-02 00:31:00,
2013-03-01 18:36:00,46.1,25.4,30.15,WNW,282,3.0,5.0,44,0.00,,---,0.00,VWS V14.01,2013-03-02 00:36:00,
2013-03-01 18:41:00,45.8,25.1,30.15,WNW,299,3.0,3.0,44,0.00,,---,0.00,VWS V14.01,2013-03-02 00:41:00,
2013-03-01 18:46:00,45.7,25.0,30.15,NNW,348,1.0,5.0,44,0.00,,---,0.00,VWS V14.01,2013-03-02 00:46:00,
2013-03-01 18:51:00,45.5,24.9,30.16,NW,308,7.0,7.0,44,0.00,,---,0.00,VWS V14.01,2013-03-02 00:51:00,
2013-03-01 18:57:00,45.2,25.1,30.16,WNW,282,2.0,3.0,45,0.00,,---,0.00,VWS V14.01,2013-03-02 00:57:00,
2013-03-01 19:02:00,45.2,24.6,30.16,NNW,331,3.0,6.0,44,0.00,,---,0.00,VWS V14.01,2013-03-02 01:02:00,
2013-03-01 19:07:00,45.2,24.6,30.16,WNW,287,3.0,8.0,44,0.00,,---,0.00,VWS V14.01,2013-03-02 01:07:00,
2013-03-01 19:12:00,45.1,24.5,30.16,WNW,293,6.0,7.0,44,0.00,,---,0.00,VWS V14.01,2013-03-02 01:12:00,
2013-03-01 19:17:00,44.9,24.9,30.16,WNW,283,2.0,7.0,45,0.00,,---,0.00,VWS V14.01,2013-03-02 01:17:00,
2013-03-01 19:22:00,44.5,25.5,30.17,NW,318,2.0,3.0,47,0.00,,---,0.00,VWS V14.01,2013-03-02 01:22:00,
2013-03-01 19:27:00,44.1,26.7,30.17,NW,323,2.0,6.0,50,0.00,,---,0.00,VWS V14.01,2013-03-02 01:27:00,
2013-03-01 19:33:00,43.8,26.4,30.17,NW,308,2.0,5.0,50,0.00,,---,0.00,VWS V14.01,2013-03-02 01:33:00,
2013-03-01 19:38:00,43.5,26.6,30.17,NW,310,3.0,3.0,51,0.00,,---,0.00,VWS V14.01,2013-03-02 01:38:00,
2013-03-01 19:44:00,43.1,27.1,30.17,WNW,303,2.0,6.0,53,0.00,,---,0.00,VWS V14.01,2013-03-02 01:44:00,
2013-03-01 19:49:00,42.8,27.3,30.18,NW,314,2.0,8.0,54,0.00,,---,0.00,VWS V14.01,2013-03-02 01:49:00,
2013-03-01 19:55:00,42.5,27.5,30.18,NW,318,6.0,6.0,55,0.00,,---,0.00,VWS V14.01,2013-03-02 01:55:00,
2013-03-01 20:00:00,42.2,27.2,30.18,WNW,300,1.0,6.0,55,0.00,,---,0.00,VWS V14.01,2013-03-02 02:00:00,
2013-03-01 20:05:00,41.8,27.3,30.18,WNW,303,2.0,3.0,56,0.00,,---,0.00,VWS V14.01,2013-03-02 02:05:00,
2013-03-01 20:10:00,41.3,27.2,30.19,NNW,334,3.0,5.0,57,0.00,,---,0.00,VWS V14.01,2013-03-02 02:10:00,
2013-03-01 20:15:00,41.2,27.1,30.19,NNW,337,1.0,3.0,57,0.00,,---,0.00,VWS V14.01,2013-03-02 02:15:00,
2013-03-01 20:20:00,41.1,27.5,30.19,NNE,19,0.0,8.0,58,0.00,,---,0.00,VWS V14.01,2013-03-02 02:20:00,
2013-03-01 20:25:00,40.6,27.0,30.19,North,9,3.0,8.0,58,0.00,,---,0.00,VWS V14.01,2013-03-02 02:25:00,
2013-03-01 20:30:00,40.3,27.5,30.19,North,351,1.0,6.0,60,0.00,,---,0.00,VWS V14.01,2013-03-02 02:30:00,
2013-03-01 20:35:00,40.2,27.4,30.20,NNW,347,1.0,5.0,60,0.00,,---,0.00,VWS V14.01,2013-03-02 02:35:00,
2013-03-01 20:40:00,39.9,26.8,30.20,WNW,297,6.0,7.0,59,0.00,,---,0.00,VWS V14.01,2013-03-02 02:40:00,
2013-03-01 20:45:00,39.8,27.1,30.20,WNW,299,2.0,8.0,60,0.00,,---,0.00,VWS V14.01,2013-03-02 02:45:00,
2013-03-01 20:50:00,39.6,26.9,30.20,NW,321,3.0,6.0,60,0.00,,---,0.00,VWS V14.01,2013-03-02 02:50:00,
2013-03-01 20:57:00,39.2,26.5,30.21,NW,317,2.0,2.0,60,0.00,,---,0.00,VWS V14.01,2013-03-02 02:57:00,
2013-03-01 21:02:00,39.2,26.5,30.21,NW,314,2.0,5.0,60,0.00,,---,0.00,VWS V14.01,2013-03-02 03:02:00,
2013-03-01 21:07:00,38.8,26.1,30.21,NNW,345,2.0,11.0,60,0.00,,---,0.00,VWS V14.01,2013-03-02 03:07:00,
2013-03-01 21:12:00,38.8,26.5,30.22,NW,318,3.0,3.0,61,0.00,,---,0.00,VWS V14.01,2013-03-02 03:12:00,
2013-03-01 21:17:00,38.5,26.2,30.22,WNW,284,6.0,6.0,61,0.00,,---,0.00,VWS V14.01,2013-03-02 03:17:00,
2013-03-01 21:22:00,38.3,26.0,30.22,NNW,331,3.0,3.0,61,0.00,,---,0.00,VWS V14.01,2013-03-02 03:22:00,
2013-03-01 21:27:00,38.0,26.1,30.22,NW,307,1.0,1.0,62,0.00,,---,0.00,VWS V14.01,2013-03-02 03:27:00,
2013-03-01 21:32:00,37.6,26.2,30.22,NW,304,1.0,3.0,63,0.00,,---,0.00,VWS V14.01,2013-03-02 03:32:00,
2013-03-01 21:38:00,37.5,26.1,30.23,NW,308,2.0,5.0,63,0.00,,---,0.00,VWS V14.01,2013-03-02 03:38:00,
2013-03-01 21:42:00,37.3,25.9,30.23,WNW,301,1.0,2.0,63,0.00,,---,0.00,VWS V14.01,2013-03-02 03:42:00,
2013-03-01 21:48:00,36.9,25.5,30.23,WNW,300,1.0,1.0,63,0.00,,---,0.00,VWS V14.01,2013-03-02 03:48:00,
2013-03-01 21:53:00,36.8,25.8,30.23,NW,310,2.0,5.0,64,0.00,,---,0.00,VWS V14.01,2013-03-02 03:53:00,
2013-03-01 21:58:00,36.8,25.8,30.23,West,276,3.0,5.0,64,0.00,,---,0.00,VWS V14.01,2013-03-02 03:58:00,
2013-03-01 22:03:00,36.6,25.6,30.23,NW,318,3.0,5.0,64,0.00,,---,0.00,VWS V14.01,2013-03-02 04:03:00,
2013-03-01 22:08:00,36.5,25.5,30.23,West,280,5.0,5.0,64,0.00,,---,0.00,VWS V14.01,2013-03-02 04:08:00,
2013-03-01 22:13:00,36.3,25.3,30.24,WNW,303,6.0,6.0,64,0.00,,---,0.00,VWS V14.01,2013-03-02 04:13:00,
2013-03-01 22:18:00,36.2,24.8,30.24,West,279,7.0,7.0,63,0.00,,---,0.00,VWS V14.01,2013-03-02 04:18:00,
2013-03-01 22:23:00,36.2,24.8,30.24,NW,310,2.0,6.0,63,0.00,,---,0.00,VWS V14.01,2013-03-02 04:23:00,
2013-03-01 22:28:00,36.0,24.6,30.24,WNW,297,2.0,3.0,63,0.00,,---,0.00,VWS V14.01,2013-03-02 04:28:00,
2013-03-01 22:33:00,35.8,24.8,30.24,WNW,297,0.0,1.0,64,0.00,,---,0.00,VWS V14.01,2013-03-02 04:33:00,
2013-03-01 22:38:00,35.8,24.8,30.24,North,9,2.0,2.0,64,0.00,,---,0.00,VWS V14.01,2013-03-02 04:38:00,
2013-03-01 22:43:00,35.2,24.3,30.24,North,351,1.0,3.0,64,0.00,,---,0.00,VWS V14.01,2013-03-02 04:43:00,
2013-03-01 22:48:00,35.0,24.1,30.24,NNW,334,3.0,3.0,64,0.00,,---,0.00,VWS V14.01,2013-03-02 04:48:00,
2013-03-01 22:53:00,35.0,24.1,30.24,NW,325,1.0,3.0,64,0.00,,---,0.00,VWS V14.01,2013-03-02 04:53:00,
2013-03-01 22:58:00,34.9,24.0,30.23,NW,321,2.0,2.0,64,0.00,,---,0.00,VWS V14.01,2013-03-02 04:58:00,
2013-03-01 23:00:00,34.7,23.8,30.23,NW,315,2.0,3.0,64,0.00,,---,0.00,VWS V14.01,2013-03-02 05:00:00,
2013-03-01 23:05:00,34.6,23.7,30.23,NW,307,2.0,2.0,64,0.00,,---,0.00,VWS V14.01,2013-03-02 05:05:00,
2013-03-01 23:10:00,34.6,23.3,30.23,WNW,289,2.0,2.0,63,0.00,,---,0.00,VWS V14.01,2013-03-02 05:10:00,
2013-03-01 23:15:00,34.6,23.3,30.24,WNW,296,3.0,3.0,63,0.00,,---,0.00,VWS V14.01,2013-03-02 05:15:00,
2013-03-01 23:20:00,34.6,23.3,30.24,WNW,299,2.0,2.0,63,0.00,,---,0.00,VWS V14.01,2013-03-02 05:20:00,
2013-03-01 23:25:00,34.7,23.4,30.24,WNW,297,1.0,1.0,63,0.00,,---,0.00,VWS V14.01,2013-03-02 05:25:00,
2013-03-01 23:30:00,34.7,23.4,30.24,WNW,299,1.0,1.0,63,0.00,,---,0.00,VWS V14.01,2013-03-02 05:30:00,
2013-03-01 23:35:00,34.4,23.1,30.23,WNW,299,1.0,1.0,63,0.00,,---,0.00,VWS V14.01,2013-03-02 05:35:00,
2013-03-01 23:40:00,34.1,22.8,30.24,NW,310,1.0,2.0,63,0.00,,---,0.00,VWS V14.01,2013-03-02 05:40:00,
2013-03-01 23:45:00,34.0,22.7,30.24,NW,311,2.0,2.0,63,0.00,,---,0.00,VWS V14.01,2013-03-02 05:45:00,
2013-03-01 23:50:00,34.0,22.4,30.24,NW,306,2.0,2.0,62,0.00,,---,0.00,VWS V14.01,2013-03-02 05:50:00,
2013-03-01 23:55:00,33.8,22.2,30.24,NNW,332,2.0,2.0,62,0.00,,---,0.00,VWS V14.01,2013-03-02 05:55:00,